Location: Unspecified
(0.0000°N, 0.0000°E)
Time: 18:01:08
(UTC+00:00)

X-37B - Pass Details

Date: 24 June 2022
Orbit: 326 x 345 km, 45.0° (Epoch: 25 June)

Event Time Altitude Azimuth Distance (km) Brightness Sun altitude
Rises 19:58:33 0° 251° (WSW) 2,068 4.9 -26.4°
Reaches altitude 10° 20:01:12 10° 279° (W) 1,232 4.0 -27.0°
Enters shadow 20:01:53 12° 293° (WNW) 1,104 3.8 -27.2°
